Content
SEND FEEDBACK

Daily
Averages
Monthly
Summary
United States of America

CASTLEFORD, IDAHO


Home > North America > United States > Idaho
Elevation: 3830 feet     Latitude: 42 33N     Longitude: 114 52W

WEATHER
 
SELECT A DAY
Number of Records: 181,829;   Date Range: 1/1/95 - 10/1/14
 
SHARE

PRINT THIS DATA

[ ← Previous Day ]
WEATHER ALMANAC - JANUARY 31, 2013
[ Next Day → ]
[ °C ]   °F
Weather ElementAverageHighLow
Temperature40.3 °F46.9 °F (1:53 pm)37 °F (3:53 am)
Dewpoint31.5 °F34 °F (3:53 pm)30 °F (11:53 pm)
Humidity71.3 %79 % (3:53 am)56 % (1:53 pm)
Barometer30.26 in30.31 in (10:53 am)30.20 in (11:53 pm)
Wind Speed12.1 mph18.4 mph (11:53 am)
Wind Gust25.3 mph (11:53 am)
Weather ElementAverage
Visibility10 mi
Wind DirectionSW (222.2 °)

Weather ElementTotal
Precipitation---
Heating Degree Days23.1 (Base 65)
Averaged from 23 records on January 31, 2013
WEATHER CONDITIONS BREAKOUT
WIND DIRECTION BREAKOUT
WEATHER BY HOUR - JANUARY 31, 2013
[ °C ]   °F
Local TimeTemperatureDewpointHumidityBarometerVisibilityWind DirectionWind SpeedGust SpeedPrecipitationEventsConditions
1:53 AM37.9 °F30.9 °F76 %30.25 in10.0 miSW (220°)13.8 mphMostly Cloudy
2:53 AM37.9 °F30.9 °F76 %30.25 in10.0 miSW (220°)12.7 mphScattered Clouds
3:53 AM37.0 °F30.9 °F79 %30.26 in10.0 miSW (220°)12.7 mphMostly Cloudy
4:53 AM37.0 °F30.9 °F79 %30.27 in10.0 miSW (230°)16.1 mphClear
5:53 AM37.0 °F30.9 °F79 %30.28 in10.0 miSW (220°)13.8 mphPartly Cloudy
6:53 AM37.0 °F30.9 °F79 %30.28 in10.0 miSSW (210°)12.7 mphMostly Cloudy
7:53 AM37.9 °F30.9 °F76 %30.29 in10.0 miSSW (210°)12.7 mphPartly Cloudy
8:53 AM37.9 °F30.9 °F76 %30.30 in10.0 miSW (220°)12.7 mphClear
9:53 AM39.9 °F30.9 °F70 %30.30 in10.0 miSW (230°)11.5 mphMostly Cloudy
10:53 AM42.1 °F32.0 °F67 %30.31 in10.0 miWSW (250°)15.0 mphScattered Clouds
11:53 AM46.0 °F32.0 °F58 %30.29 in10.0 miWSW (250°)18.4 mph25.3 mphMostly Cloudy
12:53 PM45.0 °F30.9 °F58 %30.28 in10.0 miWest (260°)16.1 mphOvercast
1:53 PM46.9 °F32.0 °F56 %30.25 in10.0 miWSW (250°)17.3 mphOvercast
2:53 PM46.9 °F33.1 °F59 %30.24 in10.0 miWSW (250°)15.0 mph20.7 mphOvercast
3:53 PM46.0 °F34.0 °F63 %30.24 in10.0 miSW (230°)13.8 mphMostly Cloudy
4:53 PM44.1 °F34.0 °F68 %30.23 in10.0 miWSW (240°)10.4 mphClear
5:53 PM41.0 °F33.1 °F73 %30.24 in10.0 miSSW (200°)6.9 mphClear
6:53 PM37.0 °F30.9 °F79 %30.25 in10.0 miSouth (180°)6.9 mphClear
7:53 PM37.9 °F30.9 °F76 %30.24 in10.0 miSSW (200°)8.1 mphClear
8:53 PM39.0 °F30.9 °F73 %30.24 in10.0 miSSW (210°)6.9 mphOvercast
9:53 PM39.0 °F30.9 °F73 %30.23 in10.0 miSSW (210°)8.1 mphOvercast
10:53 PM37.9 °F30.9 °F76 %30.23 in10.0 miSSW (200°)8.1 mphOvercast
11:53 PM39.0 °F30.0 °F70 %30.20 in10.0 miSSW (200°)9.2 mphOvercast
Hourly data recorded from KTWF, located miles away from Castleford, Idaho







STORIES FROM OUR PARTNERS